Terminal Aerodrome Forecast
Issued by NWS Tallahassee, FL

Home | Current Version | Previous Version | Text Only | Print | Product List | Glossary On
Versions: 1 2 3 4 5 6 7 8 9 10 11 12 13 14 15 16 17
000
FTUS42 KTAE 210218 AAB
TAFTLH
TAF AMD
KTLH 210218Z 2102/2124 VRB15G30KT P6SM TSRA SCT060CB BKN250
     FM210300 10005KT P6SM SCT050 BKN100
     FM212100 15006KT P6SM TS BKN050CB=

USA.gov is the U.S. government's official web portal to all federal, state and local government web resources and services.